This is the latest recevied weather packets stored in our database for station/object NR6G-12. If no packets are shown the sender has not sent any weather packets the latest 10 day(s).
| Time | Temp. | Humidity | Pressure | Rain* | Wind** | Luminosity | Snow |
|---|---|---|---|---|---|---|---|
| 1787967672 | 22.22° C | 50% | 1020 hPa | 0 mm | - | - | - |
| 1787967311 | 22.22° C | 52% | 1020 hPa | 0 mm | - | - | - |
| 1787966952 | 22.22° C | 53% | 1020.1 hPa | 0 mm | - | - | - |
| 1787966592 | 22.22° C | 50% | 1020 hPa | 0 mm | - | - | - |
| 1787966232 | 22.78° C | 51% | 1020.1 hPa | 0 mm | - | - | - |
| 1787965871 | 22.78° C | 51% | 1020.1 hPa | 0 mm | - | - | - |
| 1787965513 | 22.78° C | 49% | 1020.1 hPa | 0 mm | - | - | - |
| 1787965151 | 22.78° C | 48% | 1020 hPa | 0 mm | - | - | - |
| 1787964791 | 22.22° C | 49% | 1019.9 hPa | 0 mm | - | - | - |
| 1787964432 | 21.67° C | 51% | 1019.8 hPa | 0 mm | - | - | - |
| 1787964072 | 22.78° C | 53% | 1020.1 hPa | 0 mm | - | - | - |
| 1787963712 | 22.78° C | 52% | 1020 hPa | 0 mm | - | - | - |
| 1787963352 | 22.22° C | 51% | 1019.9 hPa | 0 mm | - | - | - |
| 1787962992 | 22.22° C | 56% | 1020 hPa | 0 mm | - | - | - |
| 1787962632 | 21.67° C | 58% | 1020.1 hPa | 0 mm | - | - | - |
| 1787962272 | 21.67° C | 61% | 1020.2 hPa | 0 mm | - | - | - |
| 1787961912 | 21.67° C | 63% | 1020.2 hPa | 0 mm | - | - | - |
| 1787961552 | 21.11° C | 62% | 1020.1 hPa | 0 mm | - | - | - |
| 1787961192 | 21.11° C | 62% | 1020.1 hPa | 0 mm | - | - | - |
| 1787960832 | 21.11° C | 62% | 1020.1 hPa | 0 mm | - | - | - |
| 1787960472 | 21.11° C | 62% | 1020.3 hPa | 0 mm | - | - | - |
| 1787960112 | 21.11° C | 62% | 1020.4 hPa | 0 mm | - | - | - |
| 1787959752 | 20.56° C | 63% | 1020.4 hPa | 0 mm | - | - | - |
| 1787959392 | 20.56° C | 63% | 1020.5 hPa | 0 mm | - | - | - |
| 1787959032 | 20.56° C | 64% | 1020.6 hPa | 0 mm | - | - | - |
* Rain latest hour (hover to see other rain measurements)
** Current wind speed in m/s (hover to see current wind gust speed)